Regional Weather Roundup
Issued by NWS State College, PA

Home | Current Version | Previous Version | Graphics & Text | Print | Product List | Glossary Off
Versions: 1 2 3 4 5 6 7 8 9 10 11 12 13 14 15 16 17 18 19 20 21 22 23 24 25 26 27 28 29 30 31 32 33 34 35 36 37 38 39 40 41 42 43 44 45 46 47 48 49 50

000
ASUS41 KCTP 221503
RWRCTP

REGIONAL WEATHER ROUNDUP
NATIONAL WEATHER SERVICE STATE COLLEGE PA
1100 AM EDT MON SEP 22 2014

Note: "fair" indicates few or no clouds below 12,000 feet with no
significant weather and/or obstructions to visibility.

* = STATION THAT DOES NOT REPORT PRECIPITATION /E.G. RAIN...SNOW...ETC/
    THUNDER OR FOG.

PAZ002>004-007>009-013>016-020>023-029>032-221600-
WESTERN PENNSYLVANIA

CITY           SKY/WX    TMP DP  RH WIND       PRES   REMARKS
ERIE           CLOUDY    55  40  56 NW10G17   30.11R
MEADVILLE      CLOUDY    50  46  86 W6        30.11R
FRANKLIN*      PTSUNNY   50  43  76 W9        30.12R
NEW CASTLE       N/A     55  43  64 W8        30.15R
BEAVER COUNTY  CLOUDY    54  41  62 NW9       30.13R
BUTLER*        CLOUDY    54  43  66 W8        30.14R
PITTSBURGH INT PTSUNNY   56  42  59 NW14      30.13R
PITTSBURGH     PTSUNNY   56  40  55 NW7G17    30.12R
INDIANA*       CLOUDY    54  45  71 NW10      30.15R
LATROBE        PTSUNNY   55  48  76 W12       30.13R
WASHINGTON CO* CLOUDY    54  43  66 N8G16     30.16R
$$

PAZ004>006-010>012-017>019-024>028-033>037-041-042-045-046-049>053-221600-
CENTRAL PENNSYLVANIA

CITY           SKY/WX    TMP DP  RH WIND       PRES   REMARKS
BRADFORD       CLOUDY    46  41  82 NW10      30.06R
DUBOIS         CLOUDY    50  40  68 NW10G25   30.08R
CLEARFIELD     CLOUDY    52  43  71 W12       30.08R
JOHNSTOWN      CLOUDY    48  45  89 NW12      30.09R
ALTOONA        CLOUDY    54  46  74 NW10      30.08R
STATE COLLEGE  CLOUDY    54  46  76 NW10      30.05R
WILLIAMSPORT   CLOUDY    58  45  62 NW13G21   30.00R
SELINSGROVE    PTSUNNY   61  46  57 NW8       30.01R
FT INDIANTOWN  SUNNY     63  47  55 NW8G24    29.99R
CAPITAL CITY   MOSUNNY   64  44  48 NW16      30.01R
HARRISBURG     MOSUNNY   65  45  48 NW20      29.99R
YORK           PTSUNNY   63  47  55 NW12      30.01R
$$

PAZ038>040-043-044-047-048-054-055-060>062-067>071-221600-
EASTERN PENNSYLVANIA

CITY           SKY/WX    TMP DP  RH WIND       PRES   REMARKS
SCRANTON       PTSUNNY   58  47  66 W12       29.96S
MOUNT POCONO   CLOUDY    55  47  74 NW18G26   29.95R
ALLENTOWN      PTSUNNY   63  48  58 NW14G20   29.94R
QUAKERTOWN*    PTSUNNY   64  50  59 NW6G18    29.95R
READING        PTSUNNY   66  48  52 NW16G25   29.96R
LANCASTER      MOSUNNY   65  47  52 NW12G23   29.99R
COATESVILLE    MOSUNNY   63  50  63 NW15G22   29.98R
POTTSTOWN      PTSUNNY   65  49  56 NW13G22   29.96R
BLUE BELL      CLOUDY    66  50  55 NW10G17   29.93S
DOYLESTOWN     PTSUNNY   65  49  56 NW12G23   29.93R
WILLOW GROVE   NOT AVBL
NORTH PHILA    MOSUNNY   71  48  43 NW14G22   29.94R
PHILADELPHIA   MOSUNNY   68  49  50 NW15G24   29.94R
$$


USA.gov is the U.S. government's official web portal to all federal, state and local government web resources and services.